Whiting Fld NAS, FL

3:22 PM CDT on May 24, 2017 (GMT -0500)
Whiting Field Naval Air Station (North)

Weather History for KNSE - September, 2013

Change the Weather History Date:

Thursday, September 19, 2013

  Actual Average Record
Temperature  
Mean Temperature 79 °F -  
Max Temperature 89 °F 83 °F 96 °F (2005)
Min Temperature 69 °F 67 °F 60 °F (1996)
Cooling Degree Days 14    
Growing Degree Days 29 (Base 50)    
Moisture  
Dew Point 67 °F    
Average Humidity 71    
Maximum Humidity 87    
Minimum Humidity 46    
Precipitation  
Precipitation 0.00 in - - ()
Sea Level Pressure  
Sea Level Pressure 30.01 in    
Wind  
Wind Speed 6 mph (East)    
Max Wind Speed 13 mph    
Max Gust Speed -    
Visibility 10 miles    
Events      
Averages and records for this station are not official NWS values.
T = Trace of Precipitation, MM = Missing Value Source: NWS Daily Summary

Daily Weather History Graph

Daily Weather History Graph

Search for Another Location

Airport or City:

Trip Planner

Search our weather history database for the weather conditions in past years. The results will help you decide how hot, cold, wet, or windy it might be!

Date:

Astronomy

Sep. 19, 2013 Rise Set
Actual Time 6:34 AM CDT 6:48 PM CDT
Civil Twilight 6:10 AM CDT 7:12 PM CDT
Nautical Twilight 5:42 AM CDT 7:40 PM CDT
Astronomical Twilight 5:14 AM CDT 8:08 PM CDT
Moon 6:51 PM CDT (9/19) 6:40 AM CDT (9/19)
Length of Visible Light 13h 01m
Length of Day
12h 13m
Full, 100% of the Moon is Illuminated
Sep 19
Full
Sep 26
Last Quarter
Oct 4
New
Oct 11
First Quarter
Oct 18
Full

Hourly Weather History & Observations

Time (CDT) Temp. Heat Index Dew Point Humidity Pressure Visibility Wind Dir Wind Speed Gust Speed Precip Events Conditions
12:56 AM 73.9 °F - 66.9 °F 79% 30.01 in 10.0 mi ENE 5.8 mph - N/A   Scattered Clouds
1:56 AM 73.0 °F - 66.9 °F 81% 30.01 in 10.0 mi East 4.6 mph - N/A   Clear
2:56 AM 72.0 °F - 66.0 °F 81% 30.00 in 10.0 mi ENE 5.8 mph - N/A   Clear
3:56 AM 71.1 °F - 66.0 °F 84% 30.00 in 9.0 mi ENE 6.9 mph - N/A   Clear
4:56 AM 70.0 °F - 64.9 °F 84% 30.01 in 9.0 mi East 5.8 mph - N/A   Clear
5:56 AM 69.1 °F - 64.9 °F 87% 30.01 in 8.0 mi ENE 5.8 mph - N/A   Scattered Clouds
6:56 AM 69.1 °F - 64.9 °F 87% 30.03 in 7.0 mi East 5.8 mph - N/A   Scattered Clouds
7:56 AM 72.0 °F - 64.9 °F 78% 30.03 in 9.0 mi ENE 9.2 mph - N/A   Scattered Clouds
8:56 AM 75.9 °F - 66.0 °F 71% 30.04 in 10.0 mi ESE 12.7 mph - N/A   Scattered Clouds
9:56 AM 80.1 °F 82.3 °F 66.9 °F 64% 30.06 in 10.0 mi East 10.4 mph - N/A   Scattered Clouds
10:56 AM 82.0 °F 84.5 °F 66.9 °F 60% 30.06 in 10.0 mi East 8.1 mph - N/A   Scattered Clouds
11:56 AM 84.9 °F 86.6 °F 64.9 °F 51% 30.05 in 10.0 mi SE 8.1 mph - N/A   Scattered Clouds
12:56 PM 87.1 °F 89.2 °F 66.0 °F 49% 30.03 in 10.0 mi East 8.1 mph - N/A   Scattered Clouds
1:56 PM 88.0 °F 90.7 °F 66.9 °F 49% 30.01 in 10.0 mi ESE 8.1 mph - N/A   Scattered Clouds
2:56 PM 89.1 °F 91.3 °F 66.0 °F 46% 29.99 in 10.0 mi SSE 6.9 mph - N/A   Scattered Clouds
3:56 PM 86.0 °F 88.8 °F 66.9 °F 53% 29.99 in 10.0 mi SSW 11.5 mph - N/A   Scattered Clouds
4:56 PM 86.0 °F 89.4 °F 68.0 °F 55% 29.98 in 10.0 mi Calm Calm - N/A   Scattered Clouds
5:56 PM 84.9 °F 88.8 °F 69.1 °F 59% 29.97 in 10.0 mi SSE 3.5 mph - 0.00 in   Scattered Clouds
6:56 PM 80.1 °F 83.6 °F 71.1 °F 74% 29.97 in 10.0 mi Calm Calm - N/A   Scattered Clouds
7:56 PM 79.0 °F - 69.1 °F 72% 29.99 in 10.0 mi SW 3.5 mph - N/A   Partly Cloudy
8:56 PM 73.9 °F - 69.1 °F 85% 29.99 in 10.0 mi Calm Calm - N/A   Clear
9:56 PM 73.0 °F - 69.1 °F 87% 30.00 in 10.0 mi Calm Calm - N/A   Partly Cloudy
10:56 PM 73.0 °F - 69.1 °F 87% 30.00 in 10.0 mi Calm Calm - N/A   Partly Cloudy
11:56 PM 72.0 °F - 68.0 °F 87% 30.00 in 9.0 mi Calm Calm - N/A   Clear